This is the latest recevied weather packets stored in our database for station/object YO6IKB-10. If no packets are shown the sender has not sent any weather packets the latest 10 day(s).
| Time | Temp. | Humidity | Pressure | Rain* | Wind** | Luminosity | Snow |
|---|---|---|---|---|---|---|---|
| 1778060046 | 25.56° C | 40% | 1010.7 hPa | 0 mm | - | - | - |
| 1778059746 | 25.56° C | 39% | 1010.6 hPa | 0 mm | - | - | - |
| 1778059445 | 25.56° C | 39% | 1010.7 hPa | 0 mm | - | - | - |
| 1778059145 | 26.11° C | 39% | 1010.7 hPa | 0 mm | - | - | - |
| 1778058845 | 26.67° C | 40% | 1010.7 hPa | 0 mm | - | - | - |
| 1778058544 | 26.11° C | 42% | 1010.8 hPa | 0 mm | - | - | - |
| 1778058244 | 25.56° C | 42% | 1010.9 hPa | 0 mm | - | - | - |
| 1778057944 | 25° C | 43% | 1010.9 hPa | 0 mm | - | - | - |
| 1778057643 | 24.44° C | 44% | 1010.9 hPa | 0 mm | - | - | - |
| 1778057343 | 23.89° C | 48% | 1010.8 hPa | 0 mm | - | - | - |
| 1778057043 | 23.33° C | 46% | 1010.8 hPa | 0 mm | - | - | - |
| 1778056743 | 22.78° C | 47% | 1010.8 hPa | 0 mm | - | - | - |
| 1778056442 | 22.78° C | 47% | 1010.9 hPa | 0 mm | - | - | - |
| 1778056142 | 22.78° C | 48% | 1010.9 hPa | 0 mm | - | - | - |
| 1778055842 | 22.78° C | 49% | 1010.9 hPa | 0 mm | - | - | - |
| 1778055541 | 22.78° C | 48% | 1010.9 hPa | 0 mm | - | - | - |
| 1778055241 | 22.22° C | 49% | 1010.9 hPa | 0 mm | - | - | - |
| 1778054941 | 22.22° C | 50% | 1010.9 hPa | 0 mm | - | - | - |
| 1778054641 | 21.67° C | 50% | 1010.9 hPa | 0 mm | - | - | - |
| 1778054340 | 21.67° C | 50% | 1010.9 hPa | 0 mm | - | - | - |
| 1778054040 | 21.67° C | 50% | 1011 hPa | 0 mm | - | - | - |
| 1778053740 | 21.67° C | 51% | 1010.9 hPa | 0 mm | - | - | - |
| 1778053439 | 21.67° C | 51% | 1011 hPa | 0 mm | - | - | - |
| 1778053139 | 22.22° C | 51% | 1011 hPa | 0 mm | - | - | - |
| 1778052839 | 22.22° C | 50% | 1011.1 hPa | 0 mm | - | - | - |
* Rain latest hour (hover to see other rain measurements)
** Current wind speed in m/s (hover to see current wind gust speed)